,MapDate,Name,None,D0,D1,D2,D3,D4,ValidStart,ValidEnd,StatisticFormatID,SUMAREA,DSCI,RANK
0,20240625,Southeast DEWS,20.04,46.85,32.79,0.32,0.0,0.0,2024-06-25,2024-07-01,2,33.11,113.39,381.0
1,20240618,Southeast DEWS,53.48,42.57,3.88,0.07,0.0,0.0,2024-06-18,2024-06-24,2,3.95,50.54,614.0
2,20240611,Southeast DEWS,80.96,11.84,3.42,3.78,0.0,0.0,2024-06-11,2024-06-17,2,7.2,30.02,758.0
3,20240604,Southeast DEWS,88.9,3.99,3.63,3.49,0.0,0.0,2024-06-04,2024-06-10,2,7.12,21.72,854.0
4,20240528,Southeast DEWS,90.74,3.44,5.08,0.74,0.0,0.0,2024-05-28,2024-06-03,2,5.82,15.82,912.0
5,20240521,Southeast DEWS,90.55,5.87,3.58,0.0,0.0,0.0,2024-05-21,2024-05-27,2,3.58,13.03,954.0
6,20240514,Southeast DEWS,81.66,15.39,2.95,0.0,0.0,0.0,2024-05-14,2024-05-20,2,2.95,21.29,858.0
7,20240507,Southeast DEWS,80.37,16.78,2.84,0.0,0.0,0.0,2024-05-07,2024-05-13,2,2.84,22.46,846.0
8,20240430,Southeast DEWS,75.79,22.41,1.8,0.0,0.0,0.0,2024-04-30,2024-05-06,2,1.8,26.01,801.0
9,20240423,Southeast DEWS,88.45,11.46,0.1,0.0,0.0,0.0,2024-04-23,2024-04-29,2,0.1,11.66,977.0
10,20240416,Southeast DEWS,91.28,8.48,0.24,0.0,0.0,0.0,2024-04-16,2024-04-22,2,0.24,8.96,1026.0
11,20240409,Southeast DEWS,94.46,4.88,0.66,0.0,0.0,0.0,2024-04-09,2024-04-15,2,0.66,6.2,1064.0
12,20240402,Southeast DEWS,95.12,4.22,0.66,0.0,0.0,0.0,2024-04-02,2024-04-08,2,0.66,5.54,1072.0
13,20240326,Southeast DEWS,93.71,5.34,0.94,0.0,0.0,0.0,2024-03-26,2024-04-01,2,0.94,7.22,1052.5
14,20240319,Southeast DEWS,92.85,4.45,2.7,0.0,0.0,0.0,2024-03-19,2024-03-25,2,2.7,9.85,1003.0
15,20240312,Southeast DEWS,90.81,6.05,2.41,0.73,0.0,0.0,2024-03-12,2024-03-18,2,3.14,13.06,952.5
16,20240305,Southeast DEWS,82.74,13.35,3.18,0.73,0.0,0.0,2024-03-05,2024-03-11,2,3.91,21.9,851.0
17,20240227,Southeast DEWS,80.69,14.54,4.04,0.73,0.0,0.0,2024-02-27,2024-03-04,2,4.77,24.81,819.0
18,20240220,Southeast DEWS,85.02,11.27,2.97,0.73,0.0,0.0,2024-02-20,2024-02-26,2,3.7,19.4,880.0
19,20240213,Southeast DEWS,88.04,8.16,3.07,0.73,0.0,0.0,2024-02-13,2024-02-19,2,3.8,16.49,906.0
20,20240206,Southeast DEWS,84.81,7.46,6.13,1.46,0.15,0.0,2024-02-06,2024-02-12,2,7.74,24.7,821.0
21,20240130,Southeast DEWS,78.89,10.1,8.01,2.8,0.2,0.0,2024-01-30,2024-02-05,2,11.01,35.32,711.0
22,20240123,Southeast DEWS,69.16,10.23,9.93,7.67,2.81,0.2,2024-01-23,2024-01-29,2,20.61,65.34,525.0
23,20240116,Southeast DEWS,64.53,13.65,10.21,8.15,3.26,0.2,2024-01-16,2024-01-22,2,21.82,72.56,490.0
24,20240109,Southeast DEWS,54.46,14.12,14.58,10.57,5.94,0.33,2024-01-09,2024-01-15,2,31.42,100.4,409.0
25,20240102,Southeast DEWS,40.89,21.26,17.84,11.77,7.91,0.33,2024-01-02,2024-01-08,2,37.85,125.54,350.0
26,20231226,Southeast DEWS,40.16,19.08,20.58,11.98,8.2,0.0,2023-12-26,2024-01-01,2,40.76,128.98,331.0
27,20231219,Southeast DEWS,41.76,17.04,17.36,16.47,7.36,0.0,2023-12-19,2023-12-25,2,41.19,130.61,325.0
28,20231212,Southeast DEWS,33.3,20.32,22.62,18.28,5.48,0.0,2023-12-12,2023-12-18,2,46.38,142.32,276.0
29,20231205,Southeast DEWS,26.7,19.32,22.0,21.55,10.43,0.0,2023-12-05,2023-12-11,2,53.98,169.69,185.0
30,20231128,Southeast DEWS,26.2,15.92,22.08,23.2,12.6,0.0,2023-11-28,2023-12-04,2,57.88,180.08,159.0
31,20231121,Southeast DEWS,21.14,12.51,20.61,26.51,16.94,2.29,2023-11-21,2023-11-27,2,66.35,212.47,82.0
32,20231114,Southeast DEWS,19.59,18.6,22.56,19.6,17.36,2.29,2023-11-14,2023-11-20,2,61.81,203.41,102.0
33,20231107,Southeast DEWS,18.6,23.05,23.13,20.42,13.94,0.85,2023-11-07,2023-11-13,2,58.34,190.58,130.0
34,20231031,Southeast DEWS,26.87,20.96,26.18,14.1,11.89,0.0,2023-10-31,2023-11-06,2,52.17,163.18,202.0
35,20231024,Southeast DEWS,37.35,22.74,20.94,15.64,3.33,0.0,2023-10-24,2023-10-30,2,39.91,124.86,354.0
36,20231017,Southeast DEWS,38.27,26.23,21.33,13.05,1.12,0.0,2023-10-17,2023-10-23,2,35.5,112.52,386.0
37,20231010,Southeast DEWS,36.67,35.97,19.28,6.97,1.12,0.0,2023-10-10,2023-10-16,2,27.37,99.92,411.0
38,20231003,Southeast DEWS,47.66,30.16,16.85,4.21,1.12,0.0,2023-10-03,2023-10-09,2,22.18,80.97,459.0
39,20230926,Southeast DEWS,61.19,26.76,7.25,4.3,0.5,0.0,2023-09-26,2023-10-02,2,12.05,56.16,572.0
40,20230919,Southeast DEWS,66.38,23.52,6.97,2.67,0.46,0.0,2023-09-19,2023-09-25,2,10.1,47.31,630.0
41,20230912,Southeast DEWS,74.78,17.68,5.32,1.87,0.35,0.0,2023-09-12,2023-09-18,2,7.54,35.33,710.0
42,20230905,Southeast DEWS,77.29,16.66,4.44,1.56,0.06,0.0,2023-09-05,2023-09-11,2,6.06,30.46,755.0
43,20230829,Southeast DEWS,73.08,17.34,8.05,1.46,0.08,0.0,2023-08-29,2023-09-04,2,9.59,38.14,687.0
44,20230822,Southeast DEWS,73.78,18.87,6.81,0.46,0.08,0.0,2023-08-22,2023-08-28,2,7.35,34.19,724.0
45,20230815,Southeast DEWS,82.05,15.81,1.46,0.51,0.17,0.0,2023-08-15,2023-08-21,2,2.14,20.94,866.0
46,20230808,Southeast DEWS,89.63,8.88,0.87,0.46,0.16,0.0,2023-08-08,2023-08-14,2,1.49,12.64,961.0
47,20230801,Southeast DEWS,88.56,9.28,1.65,0.35,0.16,0.0,2023-08-01,2023-08-07,2,2.16,14.27,932.5
48,20230725,Southeast DEWS,93.49,4.19,1.81,0.35,0.16,0.0,2023-07-25,2023-07-31,2,2.32,9.5,1016.5
49,20230718,Southeast DEWS,88.78,8.49,2.23,0.51,0.0,0.0,2023-07-18,2023-07-24,2,2.74,14.48,927.0
50,20230711,Southeast DEWS,86.19,10.94,2.4,0.47,0.0,0.0,2023-07-11,2023-07-17,2,2.87,17.15,895.0
51,20230704,Southeast DEWS,82.25,14.72,3.02,0.01,0.0,0.0,2023-07-04,2023-07-10,2,3.03,20.79,869.0
52,20230627,Southeast DEWS,80.67,16.13,3.15,0.05,0.0,0.0,2023-06-27,2023-07-03,2,3.2,22.58,845.0
53,20230620,Southeast DEWS,68.47,25.09,6.38,0.05,0.0,0.0,2023-06-20,2023-06-26,2,6.43,38.0,692.0
54,20230613,Southeast DEWS,67.74,26.41,5.85,0.0,0.0,0.0,2023-06-13,2023-06-19,2,5.85,38.11,689.0
55,20230606,Southeast DEWS,79.06,17.32,3.33,0.29,0.0,0.0,2023-06-06,2023-06-12,2,3.62,24.85,817.5
56,20230530,Southeast DEWS,88.41,8.81,1.4,1.37,0.0,0.0,2023-05-30,2023-06-05,2,2.77,15.72,913.5
57,20230523,Southeast DEWS,83.68,11.84,1.88,1.15,1.45,0.0,2023-05-23,2023-05-29,2,4.48,24.85,817.5
58,20230516,Southeast DEWS,77.28,14.88,5.39,0.92,1.53,0.0,2023-05-16,2023-05-22,2,7.84,34.54,719.0
59,20230509,Southeast DEWS,76.1,15.72,5.76,1.31,1.11,0.0,2023-05-09,2023-05-15,2,8.18,35.61,706.0
60,20230502,Southeast DEWS,77.19,14.23,6.16,1.51,0.91,0.0,2023-05-02,2023-05-08,2,8.58,34.72,716.0
61,20230425,Southeast DEWS,69.7,13.92,8.66,6.71,1.01,0.0,2023-04-25,2023-05-01,2,16.38,55.41,577.0
62,20230418,Southeast DEWS,70.2,13.37,8.59,7.04,0.81,0.0,2023-04-18,2023-04-24,2,16.44,54.91,583.0
63,20230411,Southeast DEWS,67.92,17.84,5.08,8.98,0.16,0.0,2023-04-11,2023-04-17,2,14.22,55.58,576.0
64,20230404,Southeast DEWS,54.49,31.28,4.8,8.67,0.77,0.0,2023-04-04,2023-04-10,2,14.24,69.97,502.0
65,20230328,Southeast DEWS,59.18,26.51,6.87,6.67,0.77,0.0,2023-03-28,2023-04-03,2,14.31,63.34,538.0
66,20230321,Southeast DEWS,66.81,19.93,10.14,3.13,0.0,0.0,2023-03-21,2023-03-27,2,13.27,49.6,616.5
67,20230314,Southeast DEWS,71.75,15.36,11.2,1.69,0.0,0.0,2023-03-14,2023-03-20,2,12.89,42.83,661.5
68,20230307,Southeast DEWS,69.39,15.83,14.12,0.67,0.0,0.0,2023-03-07,2023-03-13,2,14.79,46.08,643.0
69,20230228,Southeast DEWS,79.95,8.34,11.7,0.0,0.0,0.0,2023-02-28,2023-03-06,2,11.7,31.74,748.0
70,20230221,Southeast DEWS,82.19,12.11,5.7,0.0,0.0,0.0,2023-02-21,2023-02-27,2,5.7,23.51,832.0
71,20230214,Southeast DEWS,84.4,9.9,5.7,0.0,0.0,0.0,2023-02-14,2023-02-20,2,5.7,21.3,857.0
72,20230207,Southeast DEWS,79.92,14.7,4.01,1.37,0.0,0.0,2023-02-07,2023-02-13,2,5.38,26.83,784.0
73,20230131,Southeast DEWS,75.27,17.51,5.91,1.31,0.0,0.0,2023-01-31,2023-02-06,2,7.22,33.26,733.0
74,20230124,Southeast DEWS,74.59,13.13,10.65,1.63,0.0,0.0,2023-01-24,2023-01-30,2,12.28,39.32,681.0
75,20230117,Southeast DEWS,69.93,11.72,15.21,3.14,0.0,0.0,2023-01-17,2023-01-23,2,18.35,51.56,609.0
76,20230110,Southeast DEWS,69.09,13.74,13.61,3.56,0.0,0.0,2023-01-10,2023-01-16,2,17.17,51.64,607.0
77,20230103,Southeast DEWS,63.34,18.72,13.55,4.39,0.0,0.0,2023-01-03,2023-01-09,2,17.94,58.99,559.0
78,20221227,Southeast DEWS,61.31,19.48,14.39,4.82,0.0,0.0,2022-12-27,2023-01-02,2,19.21,62.72,541.0
79,20221220,Southeast DEWS,58.3,22.48,14.39,4.82,0.0,0.0,2022-12-20,2022-12-26,2,19.21,65.72,522.0
80,20221213,Southeast DEWS,44.11,33.04,16.71,6.14,0.0,0.0,2022-12-13,2022-12-19,2,22.85,84.88,448.0
81,20221206,Southeast DEWS,41.71,29.92,23.4,4.97,0.0,0.0,2022-12-06,2022-12-12,2,28.37,91.63,430.0
82,20221129,Southeast DEWS,39.2,21.64,26.42,12.74,0.0,0.0,2022-11-29,2022-12-05,2,39.16,112.7,384.0
83,20221122,Southeast DEWS,36.67,27.33,27.07,8.92,0.0,0.0,2022-11-22,2022-11-28,2,35.99,108.23,396.0
84,20221115,Southeast DEWS,38.29,27.93,25.36,8.42,0.0,0.0,2022-11-15,2022-11-21,2,33.78,103.91,405.0
85,20221108,Southeast DEWS,28.65,34.34,24.41,12.6,0.0,0.0,2022-11-08,2022-11-14,2,37.01,120.96,362.0
86,20221101,Southeast DEWS,33.04,36.87,21.46,8.63,0.0,0.0,2022-11-01,2022-11-07,2,30.09,105.68,400.0
87,20221025,Southeast DEWS,42.92,29.44,19.71,7.86,0.07,0.0,2022-10-25,2022-10-31,2,27.64,92.72,427.0
88,20221018,Southeast DEWS,52.38,28.79,16.74,2.1,0.0,0.0,2022-10-18,2022-10-24,2,18.84,68.57,507.0
89,20221011,Southeast DEWS,52.89,32.48,14.12,0.51,0.0,0.0,2022-10-11,2022-10-17,2,14.63,62.25,545.0
90,20221004,Southeast DEWS,71.48,24.11,4.41,0.0,0.0,0.0,2022-10-04,2022-10-10,2,4.41,32.93,737.0
91,20220927,Southeast DEWS,65.12,30.01,4.68,0.18,0.0,0.0,2022-09-27,2022-10-03,2,4.86,39.91,679.0
92,20220920,Southeast DEWS,83.91,12.88,3.02,0.18,0.0,0.0,2022-09-20,2022-09-26,2,3.2,19.46,879.0
93,20220913,Southeast DEWS,86.84,12.32,0.65,0.18,0.0,0.0,2022-09-13,2022-09-19,2,0.83,14.16,935.0
94,20220906,Southeast DEWS,84.11,14.77,1.12,0.0,0.0,0.0,2022-09-06,2022-09-12,2,1.12,17.01,896.0
95,20220830,Southeast DEWS,87.34,11.52,1.14,0.0,0.0,0.0,2022-08-30,2022-09-05,2,1.14,13.8,942.0
96,20220823,Southeast DEWS,86.24,12.38,1.24,0.14,0.0,0.0,2022-08-23,2022-08-29,2,1.38,15.28,920.0
97,20220816,Southeast DEWS,77.88,18.02,3.83,0.27,0.0,0.0,2022-08-16,2022-08-22,2,4.1,26.49,789.0
98,20220809,Southeast DEWS,76.71,17.8,5.01,0.48,0.0,0.0,2022-08-09,2022-08-15,2,5.49,29.26,763.0
99,20220802,Southeast DEWS,75.8,18.27,3.11,2.78,0.05,0.0,2022-08-02,2022-08-08,2,5.94,33.03,735.0
100,20220726,Southeast DEWS,66.87,24.94,4.86,3.01,0.31,0.0,2022-07-26,2022-08-01,2,8.18,44.93,653.0
101,20220719,Southeast DEWS,63.48,27.54,6.41,2.56,0.0,0.0,2022-07-19,2022-07-25,2,8.97,48.04,623.0
102,20220712,Southeast DEWS,55.38,28.71,15.41,0.5,0.0,0.0,2022-07-12,2022-07-18,2,15.91,61.03,549.0
103,20220705,Southeast DEWS,34.05,37.44,24.17,4.35,0.0,0.0,2022-07-05,2022-07-11,2,28.52,98.83,412.0
104,20220628,Southeast DEWS,34.18,42.15,19.51,4.15,0.0,0.0,2022-06-28,2022-07-04,2,23.66,93.62,425.0
105,20220621,Southeast DEWS,51.32,32.14,14.04,2.51,0.0,0.0,2022-06-21,2022-06-27,2,16.55,67.75,513.0
106,20220614,Southeast DEWS,68.33,20.55,8.62,2.51,0.0,0.0,2022-06-14,2022-06-20,2,11.13,45.32,648.0
107,20220607,Southeast DEWS,73.8,16.1,6.85,3.24,0.0,0.0,2022-06-07,2022-06-13,2,10.09,39.52,680.0
108,20220531,Southeast DEWS,76.14,13.54,7.24,3.08,0.0,0.0,2022-05-31,2022-06-06,2,10.32,37.26,696.0
109,20220524,Southeast DEWS,56.18,34.13,6.67,3.02,0.0,0.0,2022-05-24,2022-05-30,2,9.69,56.53,571.0
110,20220517,Southeast DEWS,48.51,35.2,12.54,3.75,0.0,0.0,2022-05-17,2022-05-23,2,16.29,71.53,495.0
111,20220510,Southeast DEWS,65.35,20.36,11.6,2.69,0.0,0.0,2022-05-10,2022-05-16,2,14.29,51.63,608.0
112,20220503,Southeast DEWS,64.77,21.18,11.79,2.26,0.0,0.0,2022-05-03,2022-05-09,2,14.05,51.54,610.0
113,20220426,Southeast DEWS,69.26,16.68,11.65,2.41,0.0,0.0,2022-04-26,2022-05-02,2,14.06,47.21,631.0
114,20220419,Southeast DEWS,69.25,18.0,10.92,1.83,0.0,0.0,2022-04-19,2022-04-25,2,12.75,45.33,647.0
115,20220412,Southeast DEWS,65.79,21.16,11.25,1.8,0.0,0.0,2022-04-12,2022-04-18,2,13.05,49.06,622.0
116,20220405,Southeast DEWS,62.41,20.89,14.91,1.79,0.0,0.0,2022-04-05,2022-04-11,2,16.7,56.08,574.0
117,20220329,Southeast DEWS,62.44,20.39,16.64,0.53,0.0,0.0,2022-03-29,2022-04-04,2,17.17,55.26,580.0
118,20220322,Southeast DEWS,61.07,24.45,14.05,0.43,0.0,0.0,2022-03-22,2022-03-28,2,14.48,53.84,590.0
119,20220315,Southeast DEWS,52.0,27.54,20.47,0.0,0.0,0.0,2022-03-15,2022-03-21,2,20.47,68.48,509.0
120,20220308,Southeast DEWS,36.15,39.59,23.82,0.43,0.0,0.0,2022-03-08,2022-03-14,2,24.25,88.52,438.0
121,20220301,Southeast DEWS,58.35,30.09,11.56,0.0,0.0,0.0,2022-03-01,2022-03-07,2,11.56,53.21,596.0
122,20220222,Southeast DEWS,62.47,31.22,6.31,0.0,0.0,0.0,2022-02-22,2022-02-28,2,6.31,43.84,657.0
123,20220215,Southeast DEWS,74.99,23.58,1.43,0.0,0.0,0.0,2022-02-15,2022-02-21,2,1.43,26.44,794.0
124,20220208,Southeast DEWS,80.13,18.74,1.13,0.0,0.0,0.0,2022-02-08,2022-02-14,2,1.13,21.0,864.5
125,20220201,Southeast DEWS,71.69,24.0,4.3,0.0,0.0,0.0,2022-02-01,2022-02-07,2,4.3,32.6,743.0
126,20220125,Southeast DEWS,74.76,20.94,4.3,0.0,0.0,0.0,2022-01-25,2022-01-31,2,4.3,29.54,761.0
127,20220118,Southeast DEWS,69.5,23.33,7.16,0.0,0.0,0.0,2022-01-18,2022-01-24,2,7.16,37.65,694.0
128,20220111,Southeast DEWS,61.61,24.85,12.87,0.67,0.0,0.0,2022-01-11,2022-01-17,2,13.54,52.6,599.0
129,20220104,Southeast DEWS,60.88,24.97,13.0,1.15,0.0,0.0,2022-01-04,2022-01-10,2,14.15,54.42,587.0
130,20211228,Southeast DEWS,43.4,32.08,15.35,9.17,0.0,0.0,2021-12-28,2022-01-03,2,24.52,90.29,434.0
131,20211221,Southeast DEWS,50.05,27.05,13.74,9.17,0.0,0.0,2021-12-21,2021-12-27,2,22.91,82.04,453.0
132,20211214,Southeast DEWS,37.24,42.27,11.49,9.0,0.0,0.0,2021-12-14,2021-12-20,2,20.49,92.25,429.0
133,20211207,Southeast DEWS,38.09,39.48,11.42,11.01,0.0,0.0,2021-12-07,2021-12-13,2,22.43,95.35,418.0
134,20211130,Southeast DEWS,54.73,29.76,11.5,4.01,0.0,0.0,2021-11-30,2021-12-06,2,15.51,64.79,530.0
135,20211123,Southeast DEWS,67.52,20.52,11.96,0.0,0.0,0.0,2021-11-23,2021-11-29,2,11.96,44.44,655.0
136,20211116,Southeast DEWS,78.01,13.28,8.71,0.0,0.0,0.0,2021-11-16,2021-11-22,2,8.71,30.7,753.0
137,20211109,Southeast DEWS,82.38,11.99,5.63,0.0,0.0,0.0,2021-11-09,2021-11-15,2,5.63,23.25,834.0
138,20211102,Southeast DEWS,81.38,14.32,4.3,0.0,0.0,0.0,2021-11-02,2021-11-08,2,4.3,22.92,841.0
139,20211026,Southeast DEWS,79.33,19.71,0.96,0.0,0.0,0.0,2021-10-26,2021-11-01,2,0.96,21.63,855.0
140,20211019,Southeast DEWS,89.32,10.68,0.0,0.0,0.0,0.0,2021-10-19,2021-10-25,2,0.0,10.68,992.0
141,20211012,Southeast DEWS,90.89,9.11,0.0,0.0,0.0,0.0,2021-10-12,2021-10-18,2,0.0,9.11,1022.0
142,20211005,Southeast DEWS,90.27,9.73,0.0,0.0,0.0,0.0,2021-10-05,2021-10-11,2,0.0,9.73,1010.0
143,20210928,Southeast DEWS,97.5,2.5,0.0,0.0,0.0,0.0,2021-09-28,2021-10-04,2,0.0,2.5,1154.0
144,20210921,Southeast DEWS,94.01,5.99,0.0,0.0,0.0,0.0,2021-09-21,2021-09-27,2,0.0,5.99,1068.0
145,20210914,Southeast DEWS,92.49,7.51,0.0,0.0,0.0,0.0,2021-09-14,2021-09-20,2,0.0,7.51,1046.0
146,20210907,Southeast DEWS,93.45,6.55,0.0,0.0,0.0,0.0,2021-09-07,2021-09-13,2,0.0,6.55,1061.0
147,20210831,Southeast DEWS,95.55,3.89,0.56,0.0,0.0,0.0,2021-08-31,2021-09-06,2,0.56,5.01,1088.5
148,20210824,Southeast DEWS,94.86,4.46,0.68,0.0,0.0,0.0,2021-08-24,2021-08-30,2,0.68,5.82,1069.0
149,20210817,Southeast DEWS,91.28,6.91,1.81,0.0,0.0,0.0,2021-08-17,2021-08-23,2,1.81,10.53,993.0
150,20210810,Southeast DEWS,88.34,9.85,1.81,0.0,0.0,0.0,2021-08-10,2021-08-16,2,1.81,13.47,946.0
151,20210803,Southeast DEWS,89.72,9.22,1.06,0.0,0.0,0.0,2021-08-03,2021-08-09,2,1.06,11.34,984.5
152,20210727,Southeast DEWS,91.05,8.23,0.72,0.0,0.0,0.0,2021-07-27,2021-08-02,2,0.72,9.67,1011.0
153,20210720,Southeast DEWS,90.7,9.06,0.24,0.0,0.0,0.0,2021-07-20,2021-07-26,2,0.24,9.54,1014.0
154,20210713,Southeast DEWS,89.93,10.03,0.04,0.0,0.0,0.0,2021-07-13,2021-07-19,2,0.04,10.11,999.0
155,20210706,Southeast DEWS,83.27,15.74,0.98,0.0,0.0,0.0,2021-07-06,2021-07-12,2,0.98,17.7,892.0
156,20210629,Southeast DEWS,81.48,17.12,1.41,0.0,0.0,0.0,2021-06-29,2021-07-05,2,1.41,19.94,875.0
157,20210622,Southeast DEWS,78.91,19.39,1.7,0.0,0.0,0.0,2021-06-22,2021-06-28,2,1.7,22.79,842.0
158,20210615,Southeast DEWS,71.41,23.24,5.3,0.06,0.0,0.0,2021-06-15,2021-06-21,2,5.36,34.02,725.0
159,20210608,Southeast DEWS,60.98,25.66,12.79,0.58,0.0,0.0,2021-06-08,2021-06-14,2,13.37,52.98,598.0
160,20210601,Southeast DEWS,57.51,24.22,15.19,3.07,0.0,0.0,2021-06-01,2021-06-07,2,18.26,63.81,534.0
161,20210525,Southeast DEWS,65.57,22.72,11.71,0.0,0.0,0.0,2021-05-25,2021-05-31,2,11.71,46.14,639.0
162,20210518,Southeast DEWS,78.91,16.96,4.13,0.0,0.0,0.0,2021-05-18,2021-05-24,2,4.13,25.22,809.0
163,20210511,Southeast DEWS,82.68,13.4,3.92,0.0,0.0,0.0,2021-05-11,2021-05-17,2,3.92,21.24,862.0
164,20210504,Southeast DEWS,80.79,18.92,0.29,0.0,0.0,0.0,2021-05-04,2021-05-10,2,0.29,19.5,878.0
165,20210427,Southeast DEWS,77.48,21.9,0.61,0.0,0.0,0.0,2021-04-27,2021-05-03,2,0.61,23.12,835.0
166,20210420,Southeast DEWS,78.81,20.89,0.3,0.0,0.0,0.0,2021-04-20,2021-04-26,2,0.3,21.49,856.0
167,20210413,Southeast DEWS,89.88,8.77,1.35,0.0,0.0,0.0,2021-04-13,2021-04-19,2,1.35,11.47,981.0
168,20210406,Southeast DEWS,88.46,10.19,1.35,0.0,0.0,0.0,2021-04-06,2021-04-12,2,1.35,12.89,957.0
169,20210330,Southeast DEWS,88.28,11.35,0.36,0.0,0.0,0.0,2021-03-30,2021-04-05,2,0.36,12.07,970.0
170,20210323,Southeast DEWS,84.21,15.6,0.19,0.0,0.0,0.0,2021-03-23,2021-03-29,2,0.19,15.98,909.0
171,20210316,Southeast DEWS,83.7,15.15,1.15,0.0,0.0,0.0,2021-03-16,2021-03-22,2,1.15,17.45,893.0
172,20210309,Southeast DEWS,87.45,11.32,1.24,0.0,0.0,0.0,2021-03-09,2021-03-15,2,1.24,13.8,941.0
173,20210302,Southeast DEWS,91.44,7.33,1.24,0.0,0.0,0.0,2021-03-02,2021-03-08,2,1.24,9.81,1006.5
174,20210223,Southeast DEWS,85.34,13.6,1.06,0.0,0.0,0.0,2021-02-23,2021-03-01,2,1.06,15.72,913.5
175,20210216,Southeast DEWS,79.7,18.89,1.42,0.0,0.0,0.0,2021-02-16,2021-02-22,2,1.42,21.73,853.0
176,20210209,Southeast DEWS,77.18,20.61,2.21,0.0,0.0,0.0,2021-02-09,2021-02-15,2,2.21,25.03,815.0
177,20210202,Southeast DEWS,73.17,25.46,1.37,0.0,0.0,0.0,2021-02-02,2021-02-08,2,1.37,28.2,771.0
178,20210126,Southeast DEWS,81.4,17.95,0.66,0.0,0.0,0.0,2021-01-26,2021-02-01,2,0.66,19.27,882.0
179,20210119,Southeast DEWS,83.68,15.91,0.41,0.0,0.0,0.0,2021-01-19,2021-01-25,2,0.41,16.73,901.0
180,20210112,Southeast DEWS,91.11,8.51,0.37,0.0,0.0,0.0,2021-01-12,2021-01-18,2,0.37,9.25,1020.0
181,20210105,Southeast DEWS,92.37,7.26,0.37,0.0,0.0,0.0,2021-01-05,2021-01-11,2,0.37,8.0,1038.0
182,20201229,Southeast DEWS,83.92,15.16,0.92,0.0,0.0,0.0,2020-12-29,2021-01-04,2,0.92,17.0,897.0
183,20201222,Southeast DEWS,80.61,18.47,0.92,0.0,0.0,0.0,2020-12-22,2020-12-28,2,0.92,20.31,872.5
184,20201215,Southeast DEWS,79.51,19.68,0.8,0.0,0.0,0.0,2020-12-15,2020-12-21,2,0.8,21.28,859.0
185,20201208,Southeast DEWS,84.17,15.03,0.8,0.0,0.0,0.0,2020-12-08,2020-12-14,2,0.8,16.63,903.5
186,20201201,Southeast DEWS,86.7,12.62,0.68,0.0,0.0,0.0,2020-12-01,2020-12-07,2,0.68,13.98,939.0
187,20201124,Southeast DEWS,84.48,15.52,0.0,0.0,0.0,0.0,2020-11-24,2020-11-30,2,0.0,15.52,917.0
188,20201117,Southeast DEWS,95.68,4.32,0.0,0.0,0.0,0.0,2020-11-17,2020-11-23,2,0.0,4.32,1104.5
189,20201110,Southeast DEWS,96.75,3.25,0.0,0.0,0.0,0.0,2020-11-10,2020-11-16,2,0.0,3.25,1126.0
190,20201103,Southeast DEWS,96.9,3.1,0.0,0.0,0.0,0.0,2020-11-03,2020-11-09,2,0.0,3.1,1131.0
191,20201027,Southeast DEWS,96.24,3.76,0.0,0.0,0.0,0.0,2020-10-27,2020-11-02,2,0.0,3.76,1115.0
192,20201020,Southeast DEWS,97.38,2.62,0.0,0.0,0.0,0.0,2020-10-20,2020-10-26,2,0.0,2.62,1145.0
193,20201013,Southeast DEWS,98.62,1.38,0.0,0.0,0.0,0.0,2020-10-13,2020-10-19,2,0.0,1.38,1175.0
194,20201006,Southeast DEWS,98.28,1.72,0.0,0.0,0.0,0.0,2020-10-06,2020-10-12,2,0.0,1.72,1169.5
195,20200929,Southeast DEWS,99.14,0.86,0.0,0.0,0.0,0.0,2020-09-29,2020-10-05,2,0.0,0.86,1190.0
196,20200922,Southeast DEWS,97.82,2.18,0.0,0.0,0.0,0.0,2020-09-22,2020-09-28,2,0.0,2.18,1161.5
197,20200915,Southeast DEWS,93.66,6.34,0.0,0.0,0.0,0.0,2020-09-15,2020-09-21,2,0.0,6.34,1063.0
198,20200908,Southeast DEWS,93.39,6.61,0.0,0.0,0.0,0.0,2020-09-08,2020-09-14,2,0.0,6.61,1060.0
199,20200901,Southeast DEWS,97.18,2.82,0.0,0.0,0.0,0.0,2020-09-01,2020-09-07,2,0.0,2.82,1139.5
200,20200825,Southeast DEWS,96.09,3.89,0.01,0.0,0.0,0.0,2020-08-25,2020-08-31,2,0.01,3.91,1112.0
201,20200818,Southeast DEWS,90.53,8.76,0.71,0.0,0.0,0.0,2020-08-18,2020-08-24,2,0.71,10.18,998.0
202,20200811,Southeast DEWS,84.65,14.79,0.57,0.0,0.0,0.0,2020-08-11,2020-08-17,2,0.57,15.93,910.0
203,20200804,Southeast DEWS,79.63,19.5,0.88,0.0,0.0,0.0,2020-08-04,2020-08-10,2,0.88,21.26,860.0
204,20200728,Southeast DEWS,73.74,24.98,1.27,0.0,0.0,0.0,2020-07-28,2020-08-03,2,1.27,27.52,779.0
205,20200721,Southeast DEWS,82.38,16.72,0.9,0.0,0.0,0.0,2020-07-21,2020-07-27,2,0.9,18.52,888.0
206,20200714,Southeast DEWS,95.84,4.0,0.16,0.0,0.0,0.0,2020-07-14,2020-07-20,2,0.16,4.32,1104.5
207,20200707,Southeast DEWS,98.46,1.51,0.03,0.0,0.0,0.0,2020-07-07,2020-07-13,2,0.03,1.57,1171.5
208,20200630,Southeast DEWS,96.53,3.47,0.0,0.0,0.0,0.0,2020-06-30,2020-07-06,2,0.0,3.47,1123.0
209,20200623,Southeast DEWS,96.8,3.2,0.0,0.0,0.0,0.0,2020-06-23,2020-06-29,2,0.0,3.2,1127.0
210,20200616,Southeast DEWS,96.22,3.3,0.47,0.0,0.0,0.0,2020-06-16,2020-06-22,2,0.47,4.24,1107.5
211,20200609,Southeast DEWS,98.17,1.19,0.64,0.0,0.0,0.0,2020-06-09,2020-06-15,2,0.64,2.47,1156.0
212,20200602,Southeast DEWS,90.85,6.24,2.17,0.74,0.0,0.0,2020-06-02,2020-06-08,2,2.91,12.8,958.0
213,20200526,Southeast DEWS,84.36,9.67,5.23,0.74,0.0,0.0,2020-05-26,2020-06-01,2,5.97,22.35,848.0
214,20200519,Southeast DEWS,82.93,8.85,6.54,1.69,0.0,0.0,2020-05-19,2020-05-25,2,8.23,27.0,782.0
215,20200512,Southeast DEWS,83.4,9.15,5.24,2.21,0.0,0.0,2020-05-12,2020-05-18,2,7.45,26.26,797.0
216,20200505,Southeast DEWS,85.24,8.91,4.27,1.57,0.0,0.0,2020-05-05,2020-05-11,2,5.84,22.16,849.0
217,20200428,Southeast DEWS,84.21,7.85,6.62,1.31,0.0,0.0,2020-04-28,2020-05-04,2,7.93,25.02,816.0
218,20200421,Southeast DEWS,81.03,7.24,7.13,4.6,0.0,0.0,2020-04-21,2020-04-27,2,11.73,35.3,713.0
219,20200414,Southeast DEWS,76.63,8.57,11.11,3.69,0.0,0.0,2020-04-14,2020-04-20,2,14.8,41.86,668.0
220,20200407,Southeast DEWS,72.69,12.51,14.49,0.31,0.0,0.0,2020-04-07,2020-04-13,2,14.8,42.42,666.0
221,20200331,Southeast DEWS,78.56,9.48,11.78,0.18,0.0,0.0,2020-03-31,2020-04-06,2,11.96,33.58,729.0
222,20200324,Southeast DEWS,81.77,17.38,0.66,0.18,0.0,0.0,2020-03-24,2020-03-30,2,0.84,19.24,883.5
223,20200317,Southeast DEWS,87.15,12.38,0.29,0.17,0.0,0.0,2020-03-17,2020-03-23,2,0.46,13.47,945.0
224,20200310,Southeast DEWS,90.81,8.72,0.29,0.17,0.0,0.0,2020-03-10,2020-03-16,2,0.46,9.81,1006.5
225,20200303,Southeast DEWS,93.16,6.37,0.29,0.17,0.0,0.0,2020-03-03,2020-03-09,2,0.46,7.46,1048.5
226,20200225,Southeast DEWS,93.14,6.24,0.45,0.17,0.0,0.0,2020-02-25,2020-03-02,2,0.62,7.65,1041.0
227,20200218,Southeast DEWS,94.85,4.42,0.47,0.25,0.0,0.0,2020-02-18,2020-02-24,2,0.72,6.11,1066.0
228,20200211,Southeast DEWS,94.63,4.68,0.69,0.0,0.0,0.0,2020-02-11,2020-02-17,2,0.69,6.06,1067.0
229,20200204,Southeast DEWS,84.69,14.1,1.22,0.0,0.0,0.0,2020-02-04,2020-02-10,2,1.22,16.54,905.0
230,20200128,Southeast DEWS,82.8,16.49,0.71,0.0,0.0,0.0,2020-01-28,2020-02-03,2,0.71,17.91,890.5
231,20200121,Southeast DEWS,91.92,7.37,0.71,0.0,0.0,0.0,2020-01-21,2020-01-27,2,0.71,8.79,1028.0
232,20200114,Southeast DEWS,94.94,4.35,0.71,0.0,0.0,0.0,2020-01-14,2020-01-20,2,0.71,5.77,1070.5
233,20200107,Southeast DEWS,94.94,4.35,0.71,0.0,0.0,0.0,2020-01-07,2020-01-13,2,0.71,5.77,1070.5
234,20191231,Southeast DEWS,94.01,4.52,1.47,0.0,0.0,0.0,2019-12-31,2020-01-06,2,1.47,7.46,1050.0
235,20191224,Southeast DEWS,94.1,4.43,1.47,0.0,0.0,0.0,2019-12-24,2019-12-30,2,1.47,7.37,1051.0
236,20191217,Southeast DEWS,79.51,14.18,6.32,0.0,0.0,0.0,2019-12-17,2019-12-23,2,6.32,26.82,785.0
237,20191210,Southeast DEWS,74.06,16.59,9.05,0.3,0.0,0.0,2019-12-10,2019-12-16,2,9.35,35.59,707.0
238,20191203,Southeast DEWS,74.34,17.05,8.31,0.3,0.0,0.0,2019-12-03,2019-12-09,2,8.61,34.57,717.0
239,20191126,Southeast DEWS,66.94,23.37,9.29,0.39,0.0,0.0,2019-11-26,2019-12-02,2,9.68,43.12,660.0
240,20191119,Southeast DEWS,63.1,24.5,12.07,0.32,0.0,0.0,2019-11-19,2019-11-25,2,12.39,49.6,616.5
241,20191112,Southeast DEWS,56.6,26.37,14.24,2.79,0.0,0.0,2019-11-12,2019-11-18,2,17.03,63.22,539.0
242,20191105,Southeast DEWS,52.12,21.13,21.06,5.69,0.0,0.0,2019-11-05,2019-11-11,2,26.75,80.32,461.0